Location: Castellar de la Frontera
(36.3200°N, 5.4500°W)
Time: 13:33:38
(UTC+02:00)

ISS - Visible Passes

Search period start: 23 July 2018 00:00
Search period end: 02 August 2018 00:00
Orbit: 402 x 408 km, 51.6° (Epoch: 23 July)

Date Brightness Start Highest point End Pass type
(mag) Time Alt. Az. Time Alt. Az. Time Alt. Az.
23 Jul -1.5 06:09:55 12° S 06:09:55 12° S 06:10:15 10° S visible
23 Jul -1.1 22:43:19 10° W 22:45:55 22° NNW 22:48:32 10° NNE visible
25 Jul -0.6 22:37:00 10° NW 22:38:27 12° NNW 22:39:55 10° N visible
31 Jul -0.4 00:44:30 10° NNW 00:44:59 12° N 00:44:59 12° N visible
31 Jul -0.9 23:53:04 10° N 23:54:16 11° NNE 23:54:28 11° NNE visible
